Regional Weather Roundup
Issued by NWS

Home | Current Version | Previous Version | Text Only | Print | Product List | Glossary Off
Versions: 1 2 3 4 5 6 7 8 9 10 11 12 13 14 15 16 17 18 19 20 21 22 23 24 25 26 27 28 29 30 31 32 33 34 35 36 37 38 39 40 41 42 43 44 45 46 47 48 49 50

000
ASUS43 KFSD 070710
RWRSD

WEATHER ROUNDUP FOR SOUTH DAKOTA
NATIONAL WEATHER SERVICE SIOUX FALLS SD
100 AM CST SUN FEB 07 2016

NOTE: "FAIR" INDICATES FEW OR NO CLOUDS BELOW 12,000 FEET WITH NO
SIGNIFICANT WEATHER AND/OR OBSTRUCTIONS TO VISIBILITY.


SDZ001>005-009-010-012>017-070800-
NORTHWEST AND NORTH CENTRAL SOUTH DAKOTA

CITY           SKY/WX    TMP DP  RH WIND       PRES   REMARKS
BUFFALO          N/A     34  27  75 NW33G47   29.91S WCI  20
FAITH            N/A     35  21  56 NW20G29   29.93R WCI  24
MOBRIDGE       CLEAR     39  25  57 NW20G30   29.81R
$$

SDZ012>016-024>037-041>051-057-063-072>074-070800-
SOUTHWEST AND SOUTH CENTRAL SOUTH DAKOTA

CITY           SKY/WX    TMP DP  RH WIND       PRES   REMARKS
RAPID CTY ARPT CLEAR     37  17  44 NW21G32   30.04R
PIERRE         CLEAR     36  26  67 W15       29.92R
CUSTER         CLOUDY    30   9  41 NW16G29   30.01S WCI  19
ELLSWORTH AFB  CLEAR     37  18  46 NW22G32   30.01R
PHILIP         CLEAR     37  24  59 W18G29    29.99R
PINE RIDGE     CLOUDY    35  23  61 NW8       30.07R WCI  29
SPEARFISH      MOCLDY    34  16  47 W23G39    30.04F WCI  22
WINNER         FAIR      39  25  57 W20       29.97R
$$

SDZ004>011-016>023-039-040-070800-
NORTHEAST SOUTH DAKOTA

CITY           SKY/WX    TMP DP  RH WIND       PRES   REMARKS
ABERDEEN       CLEAR     40  27  59 W21G32    29.74R
WATERTOWN      CLEAR     36  26  67 W20       29.72S
BROOKINGS      CLEAR     37  28  70 W20G28    29.75R
SISSETON         N/A     40  32  73 NW21G36   29.64S
$$

SDZ017-020-022-023-036>040-048>070-070800-
SOUTHEAST SOUTH DAKOTA

CITY           SKY/WX    TMP DP  RH WIND       PRES   REMARKS
SIOUX FALLS    PTCLDY    38  28  67 W14       29.81S
HURON          CLEAR     37  29  72 W22       29.82R
CHAMBERLAIN    CLEAR     37  27  68 W20G28    29.92R
MITCHELL       CLEAR     39  29  67 W21G29    29.86R
YANKTON        MOCLDY    41  27  56 W20       29.88R
$$

ABBREVIATIONS USED IN REMARKS
   TC - TEMPERATURE IN CELSIUS
  WCI - WIND CHILL INDEX
   HX - HEAT INDEX
  VSB - VISIBILITY




USA.gov is the U.S. government's official web portal to all federal, state and local government web resources and services.